{"data":{"norad_id":54795,"epoch":"2026-05-25T03:24:20.477952Z","epoch_age_seconds":62931,"freshness":"FRESH","line1":"1 54795U 22175AP  26145.14190368 -.00001932  00000+0 -10332-3 0  9995","line2":"2 54795  53.2135  45.7393 0001497  83.4060 276.7103 15.08846732191678","mean_motion":15.08846732,"eccentricity":0.0001497,"inclination_deg":53.2135,"raan_deg":45.7393,"arg_perigee_deg":83.406,"mean_anomaly_deg":276.7103,"bstar":-0.00010332,"rev_number":19167,"period_min":95.437128865386,"perigee_km":538.68720839593,"apogee_km":540.75841562365,"semimajor_km":6917.8598120098,"source":"CELESTRAK","updated_at":"2026-05-25T13:38:17.695642Z"}}